When you browse on this site, cookies collect data to enhance your experience and personalize the content and advertising you see.
Visit our Privacy Policy to learn more. By continuing to use the site, you agree to this use of cookies and data.
  • In Hungary
  • List of Countries
  • For 7 days
  • Water Temperature
  • Weather Map
  • News
  • Weather Widgets
  • user-avatar
    Login

    Hourly Weather Taiwan

    Today, 15 November, Friday

    Time Temperature Precipitation Wind Pressure Humidity
    00:00 +14°C° 0 mm 1 mps 647 mmHg 85%
    01:00 +13°C° 0 mm 1 mps 647 mmHg 85%
    02:00 +13°C° 0 mm 1 mps 647 mmHg 84%
    03:00 +13°C° 0 mm 1 mps 646 mmHg 82%
    04:00 +13°C° 0 mm 1 mps 646 mmHg 80%
    05:00 +13°C° 0 mm 1 mps 646 mmHg 78%
    06:00 +14°C° 0 mm 0 mps 647 mmHg 74%
    07:00 +15°C° 0 mm 0 mps 648 mmHg 69%
    08:00 +17°C° 0 mm 0 mps 649 mmHg 66%
    09:00 +20°C° 0 mm 1 mps 650 mmHg 62%
    10:00 +22°C° 0 mm 1 mps 650 mmHg 58%
    11:00 +23°C° 0 mm 2 mps 650 mmHg 54%
    12:00 +23°C° 0 mm 2 mps 649 mmHg 56%
    13:00 +23°C° 0 mm 2 mps 649 mmHg 58%
    14:00 +21°C° 0 mm 2 mps 648 mmHg 62%
    15:00 +20°C° 0 mm 2 mps 648 mmHg 70%
    16:00 +19°C° 0 mm 1 mps 648 mmHg 77%
    17:00 +18°C° 0 mm 1 mps 647 mmHg 85%
    18:00 +16°C° 0 mm 1 mps 647 mmHg 86%
    19:00 +15°C° 0 mm 1 mps 647 mmHg 87%
    20:00 +14°C° 0 mm 1 mps 647 mmHg 89%
    21:00 +14°C° 0 mm 1 mps 647 mmHg 87%
    22:00 +14°C° 0 mm 1 mps 647 mmHg 86%
    23:00 +14°C° 0 mm 1 mps 647 mmHg 84%

    Tomorrow, 16 November, Saturday

    Time Temperature Precipitation Wind Pressure Humidity
    00:00 +14°C° 0 mm 1 mps 647 mmHg 82%
    01:00 +14°C° 0 mm 1 mps 646 mmHg 79%
    02:00 +13°C° 0 mm 1 mps 646 mmHg 76%
    03:00 +13°C° 0 mm 1 mps 646 mmHg 73%
    04:00 +13°C° 0 mm 1 mps 646 mmHg 69%
    05:00 +13°C° 0 mm 1 mps 646 mmHg 65%
    06:00 +15°C° 0 mm 1 mps 647 mmHg 59%
    07:00 +18°C° 0 mm 1 mps 648 mmHg 52%
    08:00 +18°C° 0 mm 0 mps 649 mmHg 46%
    09:00 +22°C° 0 mm 1 mps 649 mmHg 43%
    10:00 +23°C° 0 mm 1 mps 650 mmHg 41%
    11:00 +25°C° 0 mm 1 mps 650 mmHg 38%
    12:00 +25°C° 0 mm 2 mps 650 mmHg 42%
    13:00 +24°C° 0 mm 2 mps 649 mmHg 46%
    14:00 +24°C° 0 mm 2 mps 648 mmHg 50%
    15:00 +22°C° 0 mm 1 mps 648 mmHg 61%
    16:00 +20°C° 0 mm 1 mps 647 mmHg 73%
    17:00 +16°C° 0 mm 0 mps 647 mmHg 84%
    18:00 +16°C° 0 mm 1 mps 647 mmHg 78%
    19:00 +15°C° 0 mm 1 mps 647 mmHg 72%
    20:00 +14°C° 0 mm 2 mps 647 mmHg 67%
    21:00 +14°C° 0 mm 2 mps 647 mmHg 59%
    22:00 +14°C° 0 mm 2 mps 647 mmHg 52%
    23:00 +14°C° 0 mm 2 mps 647 mmHg 44%

    Day after tomorrow, 17 November, Sunday

    Time Temperature Precipitation Wind Pressure Humidity
    00:00 +14°C° 0 mm 2 mps 646 mmHg 44%
    01:00 +14°C° 0 mm 2 mps 646 mmHg 44%
    02:00 +14°C° 0 mm 2 mps 646 mmHg 45%
    03:00 +14°C° 0 mm 2 mps 646 mmHg 44%
    04:00 +14°C° 0 mm 2 mps 646 mmHg 43%
    05:00 +14°C° 0 mm 2 mps 646 mmHg 43%
    06:00 +16°C° 0 mm 2 mps 647 mmHg 46%
    07:00 +19°C° 0 mm 1 mps 648 mmHg 48%
    08:00 +21°C° 0 mm 1 mps 649 mmHg 51%
    09:00 +22°C° 0 mm 1 mps 649 mmHg 49%
    10:00 +24°C° 0 mm 1 mps 649 mmHg 47%
    11:00 +25°C° 0 mm 1 mps 650 mmHg 45%
    12:00 +25°C° 0 mm 1 mps 649 mmHg 48%
    13:00 +25°C° 0 mm 1 mps 649 mmHg 50%
    14:00 +24°C° 0 mm 1 mps 648 mmHg 52%
    15:00 +23°C° 0 mm 1 mps 648 mmHg 61%
    16:00 +21°C° 0 mm 1 mps 647 mmHg 69%
    17:00 +17°C° 0 mm 0 mps 647 mmHg 77%
    18:00 +17°C° 0 mm 0 mps 647 mmHg 78%
    19:00 +16°C° 0 mm 0 mps 647 mmHg 80%
    20:00 +18°C° 0 mm 1 mps 647 mmHg 81%
    21:00 +18°C° 0 mm 1 mps 647 mmHg 81%
    22:00 +18°C° 0 mm 1 mps 647 mmHg 81%
    23:00 +18°C° 0 mm 1 mps 647 mmHg 80%

    18 November, Monday

    Time Temperature Precipitation Wind Pressure Humidity
    00:00 +16°C° 0 mm 1 mps 647 mmHg 80%
    01:00 +16°C° 0 mm 1 mps 647 mmHg 80%
    02:00 +16°C° 0 mm 1 mps 646 mmHg 80%
    03:00 +16°C° 0 mm 1 mps 646 mmHg 80%
    04:00 +16°C° 0 mm 1 mps 646 mmHg 80%
    05:00 +16°C° 0 mm 1 mps 646 mmHg 80%
    06:00 +19°C° 0 mm 1 mps 647 mmHg 76%
    07:00 +20°C° 0 mm 1 mps 648 mmHg 72%
    08:00 +22°C° 0 mm 1 mps 649 mmHg 67%
    09:00 +23°C° 0 mm 1 mps 650 mmHg 64%
    10:00 +24°C° 0 mm 1 mps 650 mmHg 61%
    11:00 +25°C° 0 mm 1 mps 650 mmHg 58%
    12:00 +24°C° 0.2 mm 1 mps 650 mmHg 63%
    13:00 +23°C° 0.2 mm 1 mps 649 mmHg 68%
    14:00 +22°C° 0.2 mm 1 mps 649 mmHg 73%
    15:00 +21°C° 0.2 mm 1 mps 649 mmHg 77%
    16:00 +21°C° 0.2 mm 1 mps 649 mmHg 81%
    17:00 +20°C° 0.2 mm 1 mps 649 mmHg 85%
    18:00 +19°C° 0.1 mm 1 mps 649 mmHg 86%
    19:00 +19°C° 0.1 mm 1 mps 649 mmHg 86%
    20:00 +18°C° 0.1 mm 1 mps 649 mmHg 86%
    21:00 +18°C° 0 mm 1 mps 649 mmHg 86%
    22:00 +18°C° 0 mm 1 mps 649 mmHg 86%
    23:00 +18°C° 0 mm 1 mps 649 mmHg 85%

    19 November, Tuesday

    Time Temperature Precipitation Wind Pressure Humidity
    00:00 +18°C° 0 mm 1 mps 649 mmHg 85%
    01:00 +16°C° 0 mm 1 mps 649 mmHg 85%
    02:00 +16°C° 0 mm 1 mps 648 mmHg 85%
    03:00 +16°C° 0 mm 1 mps 648 mmHg 85%
    04:00 +16°C° 0 mm 1 mps 648 mmHg 85%
    05:00 +16°C° 0 mm 1 mps 648 mmHg 86%
    06:00 +16°C° 0 mm 1 mps 649 mmHg 84%
    07:00 +16°C° 0 mm 1 mps 650 mmHg 82%
    08:00 +18°C° 0 mm 1 mps 650 mmHg 80%
    09:00 +19°C° 0 mm 1 mps 650 mmHg 77%
    10:00 +19°C° 0 mm 1 mps 651 mmHg 75%
    11:00 +20°C° 0 mm 1 mps 651 mmHg 72%
    12:00 +19°C° 0.1 mm 1 mps 650 mmHg 75%
    13:00 +19°C° 0.1 mm 1 mps 650 mmHg 77%
    14:00 +18°C° 0.1 mm 1 mps 649 mmHg 80%
    15:00 +18°C° 0.1 mm 1 mps 649 mmHg 82%
    16:00 +16°C° 0.1 mm 1 mps 649 mmHg 83%
    17:00 +16°C° 0.1 mm 1 mps 649 mmHg 85%
    18:00 +15°C° 0.1 mm 1 mps 649 mmHg 84%
    19:00 +15°C° 0.1 mm 1 mps 650 mmHg 84%
    20:00 +15°C° 0.1 mm 1 mps 650 mmHg 84%
    21:00 +15°C° 0.3 mm 1 mps 650 mmHg 84%
    22:00 +15°C° 0.3 mm 1 mps 650 mmHg 83%
    23:00 +15°C° 0.3 mm 1 mps 650 mmHg 83%

    20 November, Wednesday

    Time Temperature Precipitation Wind Pressure Humidity
    00:00 +14°C° 0.1 mm 1 mps 649 mmHg 83%
    01:00 +14°C° 0.1 mm 1 mps 649 mmHg 83%
    02:00 +14°C° 0.1 mm 1 mps 649 mmHg 83%
    03:00 +14°C° 0.1 mm 1 mps 649 mmHg 84%
    04:00 +14°C° 0.1 mm 1 mps 649 mmHg 85%
    05:00 +14°C° 0.1 mm 1 mps 649 mmHg 86%
    06:00 +15°C° 0 mm 1 mps 649 mmHg 84%
    07:00 +16°C° 0 mm 1 mps 650 mmHg 83%
    08:00 +16°C° 0 mm 1 mps 650 mmHg 81%
    09:00 +18°C° 0.1 mm 1 mps 651 mmHg 77%
    10:00 +19°C° 0.1 mm 1 mps 651 mmHg 74%
    11:00 +20°C° 0.1 mm 1 mps 651 mmHg 71%
    12:00 +20°C° 0.1 mm 1 mps 651 mmHg 73%
    13:00 +19°C° 0.1 mm 1 mps 650 mmHg 75%
    14:00 +18°C° 0.1 mm 1 mps 649 mmHg 77%
    15:00 +18°C° 0.1 mm 1 mps 649 mmHg 80%
    16:00 +16°C° 0.1 mm 1 mps 649 mmHg 82%
    17:00 +15°C° 0.1 mm 0 mps 649 mmHg 85%
    18:00 +15°C° 0 mm 1 mps 649 mmHg 85%
    19:00 +15°C° 0 mm 1 mps 649 mmHg 86%
    20:00 +14°C° 0 mm 1 mps 649 mmHg 86%
    21:00 +14°C° 0 mm 1 mps 649 mmHg 85%
    22:00 +14°C° 0 mm 2 mps 649 mmHg 85%
    23:00 +14°C° 0 mm 2 mps 649 mmHg 84%
    Show more